2024-105D (59920 NORAD) Tracking and Keplerian Element Data

This shows tracking and keplerian element data for the satellite.

Feedback or suggestion? Click here.




ElementValue
Catalog59920
Name2024-105D
Epoch Orbit125
Epoch Day160.24920059
Epoch Year2024
RAAN166.6447
Inclination97.6046
Eccentricity0.0013662
Argument of Perigee256.5672
Mean Anonmoly103.4034
Mean Motion15.09454681
Decay Rate8.11E-05
L11 59920U 24105D 24160.24920059 .00008110 00000+0 50939-3 0 9999
L22 59920 97.6046 166.6447 0013662 256.5672 103.4034 15.09454681 1250



Live tracking and technical data element details for 2024-105D (NORAD 59920). 2024-105D can be tracked NOW for your location showing map with azimuth and elevation plus other details from your city location.







IsCatalogInMostPopularTable: catalog: 59920, numindb: 7
Update: records affected: 1



GetName: 59920 2024-105D

Hit Count: updated at: Tue, 16 Jul 2024 03:03:01 GMT